Home > Weather > Lierbyen > Past weeks

Flag for Norway Weather for the Past 2 Weeks in Lierbyen, Norway

Now
41 °F

Sprinkles. Broken clouds.


Feels Like: 29 °F
Forecast: 22 / 28 °F
Wind: 37 mph from Northeast

Location: Statfjord B

Current Time: Feb 11, 2016 at 10:00:15 AM

Latest Report: Feb 11, 2016 at 9:20 AM


Visibility: N/A

Pressure: 29.59 "Hg

Humidity: 57%

Dew point: 27 °F

Location of LierbyenLocation

Historic Weather in Lierbyen — Graph

°F

Lierbyen Temperature Yesterday

Maximum temperature yesterday: 45 °F (at 12:20 AM)
Minimum temperature yesterday: 37 °F (at 11:50 PM)
Average temperature yesterday: 43 °F

High & Low Weather Summary for the Past Weeks

 TemperatureHumidityPressure
High48 °F (Jan 29, 11:50 AM)100% (Jan 29, 7:50 AM)29.98 "Hg (Jan 29, 7:50 AM)
Low34 °F (Jan 31, 7:50 AM)45% (Feb 4, 11:50 AM)28.26 "Hg (Jan 29, 3:50 PM)
Average42 °F78%29.09 "Hg
* Reported Jan 27 8:20 AM — Feb 11 8:50 AM, Lierbyen, Weather by CustomWeather, © 2016

Note: Actual official high and low records may vary slightly from our data, if they occured in-between our weather recording intervals... More about our weather records

Advertising

Lierbyen Weather History for the Previous 24 Hours

 ConditionsComfort  
Time TempWeatherWind HumidityBarometerVisibility
8:50 AM
Thu, Feb 11
39 °FScattered clouds.43 mph65%29.56 "HgN/A
8:20 AM41 °FPartly sunny.43 mph57%29.56 "HgN/A
7:50 AM39 °FPassing clouds.40 mph75%29.56 "HgN/A
7:20 AM37 °FSprinkles. Passing clouds.33 mph87%29.56 "HgN/A
6:50 AM36 °FSnow flurries. Passing clouds.43 mph87%29.56 "Hg2 mi
6:20 AM37 °FLight rain. Passing clouds.46 mph81%29.53 "HgN/A
5:50 AM41 °FPassing clouds.43 mph66%29.50 "HgN/A
5:20 AM39 °FPassing clouds.45 mph75%29.50 "HgN/A
4:50 AM39 °FPassing clouds.48 mph75%29.50 "HgN/A
4:20 AM39 °FPassing clouds.40 mph70%29.50 "HgN/A
3:50 AM37 °FLight rain. Passing clouds.44 mph81%29.50 "HgN/A
2:50 AM39 °FPassing clouds.43 mph70%29.47 "HgN/A
2:20 AM41 °FPartly cloudy.39 mph76%29.47 "HgN/A
1:50 AM41 °FPassing clouds.40 mph70%29.47 "HgN/A
1:20 AM41 °FSprinkles. Passing clouds.41 mph61%29.45 "HgN/A
12:50 AM41 °FPassing clouds.44 mph61%29.45 "HgN/A
12:20 AM41 °FPassing clouds.39 mph66%29.45 "HgN/A
11:50 PM
Wed, Feb 10
37 °FSprinkles. Passing clouds.44 mph87%29.45 "HgN/A
11:20 PM41 °FPassing clouds.40 mph70%29.42 "HgN/A
10:50 PM41 °FPassing clouds.39 mph66%29.42 "HgN/A
9:50 PM41 °FPassing clouds.39 mph66%29.39 "HgN/A
9:20 PM41 °FPassing clouds.44 mph61%29.36 "HgN/A
8:50 PM43 °FPartly cloudy.43 mph61%29.36 "HgN/A
8:20 PM43 °FPassing clouds.46 mph57%29.33 "HgN/A
7:50 PM43 °FPassing clouds.46 mph61%29.33 "HgN/A
7:20 PM43 °FPassing clouds.48 mph61%29.30 "HgN/A
6:50 PM43 °FPassing clouds.48 mph57%29.30 "HgN/A
6:20 PM43 °FPassing clouds.50 mph61%29.27 "HgN/A
5:50 PM43 °FPartly cloudy.52 mph61%29.27 "HgN/A
5:20 PM43 °FPassing clouds.47 mph66%29.27 "HgN/A
4:50 PM43 °FPartly sunny.51 mph66%29.24 "HgN/A
4:20 PM45 °FPartly sunny.51 mph61%29.21 "HgN/A
3:50 PM45 °FPartly sunny.51 mph66%29.21 "HgN/A
3:20 PM43 °FPartly sunny.53 mph71%29.18 "HgN/A
2:50 PM43 °FSprinkles. Partly sunny.50 mph81%29.15 "Hg4 mi
2:20 PM43 °FSprinkles. Partly sunny.48 mph81%29.15 "HgN/A
1:50 PM43 °FPartly sunny.44 mph81%29.15 "HgN/A
1:20 PM43 °FSprinkles. Partly sunny.41 mph81%29.12 "HgN/A
12:50 PM43 °FSprinkles. Partly sunny.44 mph81%29.12 "HgN/A
12:20 PM43 °FPartly sunny.46 mph81%29.09 "HgN/A
11:50 AM43 °FPartly sunny.33 mph93%29.09 "HgN/A
11:20 AM43 °FPartly sunny.31 mph93%29.09 "HgN/A
10:50 AM43 °FPartly sunny.32 mph81%29.06 "HgN/A
10:20 AM45 °FPartly sunny.29 mph81%29.06 "HgN/A
Weather by CustomWeather, © 2016

See weather overviewHow to use our weather pages